PAS7161 WIII-WMKP

Flight info

Callsign PAS7161
Flight time N/A
Altitude 36000
Route DOLTA A585 PLB G579 VJB A457 BILIK Y506 TEPUS GORVU1F
Aircraft A320/M-SDE3FGHIRWY/LB1

Departure

Time N/A
Airport Soekarno-Hatta International Airport (WIII)

Arrival

Time 2026-04-18 12:23
Airport Penang International Airport (WMKP)
Time Latitude Longitude Altitude Speed Heading
2026-04-18 11:39 2.22196 102.54739 35845 ft 464 kts 302°
2026-04-18 11:39 2.23896 102.51997 35849 ft 464 kts 301°
2026-04-18 11:40 2.27303 102.46524 35848 ft 464 kts 301°
2026-04-18 11:40 2.30708 102.41049 35847 ft 464 kts 301°
2026-04-18 11:41 2.34109 102.35569 35842 ft 464 kts 301°
2026-04-18 11:41 2.37514 102.30089 35841 ft 464 kts 301°
2026-04-18 11:42 2.40919 102.24609 35844 ft 464 kts 301°
2026-04-18 11:42 2.44326 102.19125 35848 ft 464 kts 301°
2026-04-18 11:43 2.47726 102.13639 35855 ft 464 kts 301°
2026-04-18 11:43 2.51125 102.08160 35857 ft 464 kts 301°
2026-04-18 11:44 2.54530 102.02679 35855 ft 464 kts 302°
2026-04-18 11:44 2.57942 101.97191 35850 ft 464 kts 302°
2026-04-18 11:45 2.61348 101.91708 35848 ft 464 kts 302°
2026-04-18 11:45 2.64754 101.86219 35845 ft 464 kts 301°
2026-04-18 11:46 2.68154 101.80728 35845 ft 464 kts 301°
2026-04-18 11:46 2.71554 101.75239 35841 ft 464 kts 301°
2026-04-18 11:47 2.75433 101.70134 35841 ft 465 kts 308°
2026-04-18 11:47 2.79506 101.65115 35843 ft 465 kts 308°
2026-04-18 11:48 2.83570 101.60076 35850 ft 465 kts 308°
2026-04-18 11:48 2.87638 101.55043 35859 ft 465 kts 309°
2026-04-18 11:49 2.91712 101.50020 35861 ft 465 kts 309°
2026-04-18 11:49 2.95788 101.45000 35864 ft 465 kts 309°
2026-04-18 11:50 2.99858 101.39979 35861 ft 465 kts 308°
2026-04-18 11:50 3.03924 101.34952 35861 ft 464 kts 308°
2026-04-18 11:51 3.07983 101.29930 35861 ft 464 kts 308°
2026-04-18 11:51 3.12067 101.24917 35848 ft 464 kts 311°
2026-04-18 11:52 3.17042 101.20843 35841 ft 464 kts 330°
2026-04-18 11:52 3.22896 101.18084 35837 ft 465 kts 335°
2026-04-18 11:53 3.28776 101.15395 35836 ft 465 kts 335°
2026-04-18 11:53 3.34662 101.12692 35834 ft 465 kts 335°
2026-04-18 11:54 3.40562 101.10017 35836 ft 466 kts 335°
2026-04-18 11:54 3.46482 101.07381 35832 ft 466 kts 336°
2026-04-18 11:55 3.52408 101.04739 35832 ft 466 kts 335°
2026-04-18 11:55 3.58325 101.02087 35833 ft 466 kts 335°
2026-04-18 11:56 3.64209 100.99446 35834 ft 466 kts 335°
2026-04-18 11:56 3.70172 100.96770 35836 ft 466 kts 335°
2026-04-18 11:57 3.76059 100.94142 35835 ft 467 kts 336°
2026-04-18 11:57 3.81999 100.91509 35832 ft 467 kts 336°
2026-04-18 11:58 3.87938 100.88873 35833 ft 467 kts 336°
2026-04-18 11:58 3.93879 100.86232 35829 ft 467 kts 336°
2026-04-18 11:59 3.99815 100.83590 35831 ft 467 kts 335°
2026-04-18 11:59 4.05750 100.80938 35829 ft 467 kts 335°
2026-04-18 12:00 4.11681 100.78292 35829 ft 467 kts 335°
2026-04-18 12:00 4.17625 100.75648 35828 ft 467 kts 336°
2026-04-18 12:01 4.26564 100.71749 35547 ft 469 kts 336°
2026-04-18 12:01 4.29586 100.70440 34491 ft 477 kts 336°
2026-04-18 12:02 4.32642 100.69117 33525 ft 480 kts 336°
2026-04-18 12:02 4.35722 100.67784 32497 ft 483 kts 336°
2026-04-18 12:02 4.38813 100.66441 31416 ft 486 kts 336°
2026-04-18 12:02 4.41917 100.65085 30379 ft 488 kts 336°
2026-04-18 12:03 4.45016 100.63727 29686 ft 481 kts 336°
2026-04-18 12:03 4.48063 100.62394 28968 ft 475 kts 336°
2026-04-18 12:03 4.51068 100.61082 28284 ft 469 kts 336°
2026-04-18 12:03 4.54037 100.59787 27628 ft 463 kts 336°
2026-04-18 12:04 4.56973 100.58504 26972 ft 458 kts 336°
2026-04-18 12:04 4.59877 100.57234 26328 ft 453 kts 336°
2026-04-18 12:04 4.62754 100.55977 25693 ft 450 kts 336°
2026-04-18 12:04 4.65576 100.54747 25065 ft 446 kts 336°
2026-04-18 12:05 4.68415 100.53511 24443 ft 444 kts 336°
2026-04-18 12:05 4.71238 100.52281 23839 ft 441 kts 336°
2026-04-18 12:05 4.74038 100.51058 23212 ft 438 kts 336°
2026-04-18 12:05 4.76823 100.49841 22617 ft 434 kts 336°
2026-04-18 12:06 4.79560 100.48611 22081 ft 428 kts 332°
2026-04-18 12:06 4.82054 100.47025 21579 ft 423 kts 321°
2026-04-18 12:06 4.84185 100.45016 21046 ft 419 kts 311°
2026-04-18 12:06 4.85975 100.42727 20335 ft 419 kts 307°
2026-04-18 12:07 4.87768 100.40366 19231 ft 431 kts 307°
2026-04-18 12:07 4.89633 100.37914 18116 ft 442 kts 308°
2026-04-18 12:07 4.91479 100.35491 17195 ft 443 kts 308°
2026-04-18 12:07 4.93342 100.33045 16438 ft 439 kts 307°
2026-04-18 12:08 4.95176 100.30634 15627 ft 429 kts 307°
2026-04-18 12:08 4.96973 100.28273 14410 ft 422 kts 307°
2026-04-18 12:08 4.98741 100.25952 13233 ft 415 kts 308°
2026-04-18 12:08 5.00744 100.23921 12018 ft 407 kts 325°
2026-04-18 12:09 5.03277 100.22762 10848 ft 398 kts 348°
2026-04-18 12:09 5.05994 100.22648 9679 ft 389 kts
2026-04-18 12:09 5.08507 100.23536 8430 ft 380 kts 32°
2026-04-18 12:09 5.10495 100.25164 7864 ft 356 kts 43°
2026-04-18 12:10 5.12233 100.26764 7736 ft 323 kts 42°
2026-04-18 12:10 5.13828 100.28201 7614 ft 295 kts 42°
2026-04-18 12:10 5.15319 100.29528 7495 ft 282 kts 42°
2026-04-18 12:10 5.16780 100.30830 7381 ft 280 kts 42°
2026-04-18 12:11 5.18227 100.32127 7245 ft 278 kts 42°
2026-04-18 12:11 5.19663 100.33423 7123 ft 277 kts 42°
2026-04-18 12:11 5.21091 100.34714 7008 ft 276 kts 42°
2026-04-18 12:11 5.22518 100.36001 6890 ft 275 kts 42°
2026-04-18 12:12 5.23937 100.37282 6799 ft 275 kts 42°
2026-04-18 12:12 5.25352 100.38562 6545 ft 272 kts 43°
2026-04-18 12:12 5.26754 100.39833 6139 ft 271 kts 43°
2026-04-18 12:12 5.28150 100.41101 5697 ft 270 kts 43°
2026-04-18 12:13 5.29542 100.42365 5271 ft 270 kts 43°
2026-04-18 12:13 5.30933 100.43626 4842 ft 269 kts 42°
2026-04-18 12:13 5.32314 100.44880 4492 ft 266 kts 42°
2026-04-18 12:13 5.33681 100.46118 4149 ft 264 kts 42°
2026-04-18 12:14 5.35044 100.47350 3854 ft 263 kts 42°
2026-04-18 12:14 5.36410 100.48585 3640 ft 264 kts 41°
2026-04-18 12:14 5.37772 100.49818 3423 ft 261 kts 42°
2026-04-18 12:14 5.39140 100.50956 3269 ft 250 kts 31°
2026-04-18 12:15 5.40737 100.51521 3052 ft 241 kts
2026-04-18 12:15 5.42363 100.51384 2833 ft 232 kts 341°
2026-04-18 12:15 5.43741 100.50649 2734 ft 218 kts 318°
2026-04-18 12:15 5.44683 100.49537 2665 ft 202 kts 298°
2026-04-18 12:16 5.45214 100.48308 2591 ft 188 kts 291°
2026-04-18 12:16 5.45677 100.47150 2575 ft 169 kts 291°
2026-04-18 12:16 5.46101 100.46106 2569 ft 156 kts 291°
2026-04-18 12:16 5.46473 100.45102 2572 ft 151 kts 281°
2026-04-18 12:17 5.46543 100.44059 2579 ft 150 kts 263°
2026-04-18 12:17 5.46267 100.43059 2590 ft 149 kts 244°
2026-04-18 12:17 5.45685 100.42209 2584 ft 149 kts 225°
2026-04-18 12:17 5.44920 100.41508 2586 ft 149 kts 223°
2026-04-18 12:18 5.44156 100.40809 2592 ft 148 kts 223°
2026-04-18 12:18 5.43392 100.40108 2587 ft 149 kts 223°
2026-04-18 12:18 5.42627 100.39406 2588 ft 150 kts 223°
2026-04-18 12:18 5.41862 100.38705 2587 ft 148 kts 223°
2026-04-18 12:19 5.41102 100.38009 2587 ft 148 kts 223°
2026-04-18 12:19 5.40334 100.37310 2442 ft 149 kts 222°
2026-04-18 12:19 5.39568 100.36618 2205 ft 147 kts 223°
2026-04-18 12:19 5.38817 100.35940 1962 ft 144 kts 223°
2026-04-18 12:20 5.38074 100.35264 1694 ft 145 kts 222°
2026-04-18 12:20 5.37336 100.34595 1596 ft 142 kts 222°
2026-04-18 12:20 5.36602 100.33930 1474 ft 142 kts 222°
2026-04-18 12:20 5.35872 100.33269 1320 ft 141 kts 222°
2026-04-18 12:21 5.35152 100.32617 1163 ft 142 kts 222°
2026-04-18 12:21 5.34419 100.31952 1006 ft 142 kts 221°
2026-04-18 12:21 5.33685 100.31286 838 ft 142 kts 220°
2026-04-18 12:21 5.32941 100.30615 678 ft 145 kts 220°
2026-04-18 12:22 5.32192 100.29941 482 ft 145 kts 220°
2026-04-18 12:22 5.31447 100.29257 224 ft 145 kts 221°
2026-04-18 12:22 5.30698 100.28568 55 ft 146 kts 220°
2026-04-18 12:22 5.29986 100.27942 27 ft 120 kts 220°
2026-04-18 12:23 5.29502 100.27493 23 ft 70 kts 222°
2026-04-18 12:23 5.29214 100.27230 24 ft 51 kts 222°
2026-04-18 12:23 5.29059 100.27082 27 ft 14 kts 244°
2026-04-18 12:23 5.29087 100.27021 25 ft 8 kts 311°
2026-04-18 12:24 5.29127 100.26976 24 ft 9 kts 314°
2026-04-18 12:24 5.29169 100.26931 23 ft 9 kts 311°
2026-04-18 12:24 5.29208 100.26887 23 ft 8 kts 312°
2026-04-18 12:24 5.29244 100.26846 23 ft 7 kts 310°
2026-04-18 12:25 5.29262 100.26803 23 ft 6 kts 267°
2026-04-18 12:25 5.29239 100.26773 23 ft 5 kts 221°
2026-04-18 12:25 5.29214 100.26751 25 ft 4 kts 220°
2026-04-18 12:25 5.29192 100.26732 23 ft 4 kts 221°
2026-04-18 12:26 5.29174 100.26712 23 ft 3 kts 239°
2026-04-18 12:26 5.29187 100.26686 25 ft 6 kts 311°
2026-04-18 12:26 5.29214 100.26657 23 ft 3 kts 311°
2026-04-18 12:26 5.29220 100.26650 23 ft 0 kts 311°
2026-04-18 12:27 5.29222 100.26648 23 ft 0 kts 311°
2026-04-18 12:27 5.29222 100.26647 23 ft 0 kts 311°